Terug naar catalogus

STARLINK-36708

ActiefCommunicatieSSO
NORAD 67713·PAYLOAD·🇺🇸 United States

Gelanceerd Feb 7, 2026 vanaf Vandenberg Space Force Base

Loading…

Volgende Passages (komende 24 uur)

TLE

VersSource: CelesTrak SupGP

Epoch: Sep 15, 2026, 02:48 UTC

1 67713C 26025W   26258.11715278 -.00000688  00000+0 -21366-4 0  2587
2 67713  97.2855   7.2623 0001113  89.6644   1.3090 15.33447801    15

Volg STARLINK-36708 in realtime met AllMySat

Download on the App Store